Weather History for Tapachula Airport, Mexico

Change the Weather History Date:

Tuesday, September 24, 2013

  Actual Average Record
Temperature  
Mean Temperature 80 °F -  
Max Temperature 86 °F 85 °F 91 °F (2011)
Min Temperature 73 °F 73 °F 71 °F (2002)
Cooling Degree Days 14    
Growing Degree Days 30 (Base 50)    
Moisture  
Dew Point 75 °F    
Average Humidity 89    
Maximum Humidity 100    
Minimum Humidity 74    
Precipitation  
Precipitation 0.00 in - - ()
Sea Level Pressure  
Sea Level Pressure 29.86 in    
Wind  
Wind Speed 1 mph ()    
Max Wind Speed 12 mph    
Max Gust Speed -    
Visibility 10.1 miles    
Events Rain    
Averages and records for this station are not official NWS values.
T = Trace of Precipitation, MM = Missing Value Source: Averaged Metar Reports

Daily Weather History Graph

Daily Weather History Graph

Search for Another Location

Airport:

Trip Planner

Search our weather history database for the weather conditions in past years. The results will help you decide how hot, cold, wet, or windy it might be!

Date:

Astronomy

Sep. 24, 2013 Rise Set
Actual Time 6:58 AM CDT 7:03 PM CDT
Civil Twilight 6:37 AM CDT 7:25 PM CDT
Nautical Twilight 6:12 AM CDT 7:50 PM CDT
Astronomical Twilight 5:47 AM CDT 8:14 PM CDT
Moon 11:09 PM CDT (9/24) 11:26 AM CDT (9/24)
Length of Visible Light 12h 47m
Length of Day
12h 05m
Waning Gibbous, 73% of the Moon is Illuminated
Sep 24
Waning Gibbous
Sep 26
Last Quarter
Oct 4
New
Oct 11
First Quarter
Oct 18
Full

Hourly Weather History & Observations

Time (CDT) Temp. Heat Index Dew Point Humidity Pressure Visibility Wind Dir Wind Speed Gust Speed Precip Events Conditions
12:45 AM 73.4 °F - 73.4 °F 100% 29.92 in 5.0 mi Calm Calm - N/A Rain Rain
1:40 AM 73.4 °F - 73.4 °F 100% 29.91 in 10.0 mi Calm Calm - N/A   Mostly Cloudy
2:41 AM 73.4 °F - 73.4 °F 100% 29.88 in 10.0 mi Calm Calm - N/A   Mostly Cloudy
3:44 AM 73.4 °F - 73.4 °F 100% 29.85 in 10.0 mi Calm Calm - N/A   Mostly Cloudy
4:40 AM 73.4 °F - 73.4 °F 100% 29.86 in 10.0 mi Calm Calm - N/A   Mostly Cloudy
5:40 AM 73.4 °F - 73.4 °F 100% 29.86 in 10.0 mi Calm Calm - N/A   Mostly Cloudy
6:52 AM 75.2 °F - 73.4 °F 94% 29.93 in 15.0 mi Calm Calm - N/A   Mostly Cloudy
7:40 AM 75.2 °F - 73.4 °F 94% 29.88 in 15.0 mi Calm Calm - N/A   Mostly Cloudy
8:40 AM 77.0 °F - 73.4 °F 89% 29.89 in 15.0 mi Calm Calm - N/A   Mostly Cloudy
9:41 AM 80.6 °F 86.2 °F 75.2 °F 84% 29.83 in 10.0 mi Calm Calm - N/A   Mostly Cloudy
10:41 AM 84.2 °F 94.1 °F 77.0 °F 79% 29.90 in 10.0 mi Calm Calm - N/A   Mostly Cloudy
11:42 AM 84.2 °F 94.1 °F 77.0 °F 79% 29.89 in 10.0 mi Calm Calm - N/A   Mostly Cloudy
12:40 PM 86.0 °F 96.9 °F 77.0 °F 74% 29.81 in 10.0 mi Calm Calm - N/A   Mostly Cloudy
1:40 PM 84.2 °F 94.1 °F 77.0 °F 79% 29.86 in 10.0 mi SSW 11.5 mph - N/A   Mostly Cloudy
2:42 PM 84.2 °F 96.1 °F 78.8 °F 84% 29.86 in 10.0 mi SSW 11.5 mph - N/A   Mostly Cloudy
3:41 PM 84.2 °F 96.1 °F 78.8 °F 84% 29.81 in 10.0 mi WSW 9.2 mph - N/A   Mostly Cloudy
4:40 PM 84.2 °F 94.1 °F 77.0 °F 79% 29.83 in 10.0 mi WSW 6.9 mph - N/A   Mostly Cloudy
5:40 PM 82.4 °F 90.9 °F 77.0 °F 84% 29.80 in 10.0 mi SSW 9.2 mph - N/A   Mostly Cloudy
6:40 PM 82.4 °F 90.9 °F 77.0 °F 84% 29.77 in 10.0 mi Calm Calm - N/A   Scattered Clouds
7:48 PM 80.6 °F 86.2 °F 75.2 °F 84% 29.84 in 10.0 mi Calm Calm - N/A   Scattered Clouds
8:41 PM 78.8 °F - 75.2 °F 89% 29.85 in 10.0 mi Calm Calm - N/A   Scattered Clouds
9:50 PM 77.0 °F - 75.2 °F 94% 29.86 in 8.0 mi Calm Calm - N/A   Mostly Cloudy
9:55 PM 77.0 °F - 75.2 °F 94% 29.86 in 8.0 mi Calm Calm - N/A   Mostly Cloudy
10:41 PM 77.0 °F - 75.2 °F 94% 29.89 in 8.0 mi Calm Calm - N/A   Mostly Cloudy
11:41 PM 77.0 °F - 75.2 °F 94% 29.87 in 8.0 mi Calm Calm - N/A   Mostly Cloudy